Location: Alpha Ridge Park
(39.3209°N, 76.9128°W)
Time: 00:30:37
(UTC-04:00)

Transit 2A - Pass Details

Date: 23 May 2019
Orbit: 593 x 966 km, 66.7° (Epoch: 24 June)

Event Time Altitude Azimuth Distance (km) Brightness Sun altitude
Rises 18:39:23 0° 319° (NW) 3,498 10.3 17.6°
Reaches altitude 10° 18:42:23 10° 307° (NW) 2,495 10.1 17.0°
Maximum altitude 18:46:55 24° 255° (WSW) 1,602 9.0 16.2°
Drops below altitude 10° 18:51:05 10° 202° (SSW) 2,280 8.6 15.4°
Sets 18:53:43 0° 188° (S) 3,132 9.1 14.9°
